Location: 32930 Toén, Ourense, España
(42.3348°N, 7.8903°W)
Time: 19:14:35
(UTC+01:00)

ISS - Visible Passes

Search period start: 21 March 2019 00:00
Search period end: 31 March 2019 00:00
Orbit: 406 x 411 km, 51.6° (Epoch: 21 March)

Date Brightness Start Highest point End Pass type
(mag) Time Alt. Az. Time Alt. Az. Time Alt. Az.
21 Mar -2.2 20:24:47 10° S 20:27:07 18° SE 20:28:52 13° E visible
21 Mar -1.6 22:00:09 10° WSW 22:01:40 24° WSW 22:01:40 24° WSW visible
22 Mar -4.0 21:09:01 10° SW 21:12:19 83° SE 21:13:28 37° ENE visible
23 Mar -3.4 20:18:07 10° SSW 20:21:17 44° SE 20:24:26 10° ENE visible
23 Mar -2.0 21:54:58 10° W 21:57:51 30° NNW 21:57:51 30° NNW visible
24 Mar -2.8 21:03:32 10° WSW 21:06:43 44° NNW 21:09:16 14° NE visible
24 Mar -0.3 22:41:34 10° NW 22:42:01 12° NW 22:42:01 12° NW visible
25 Mar -3.6 20:12:16 10° WSW 20:15:33 75° NNW 20:18:52 10° NE visible
25 Mar -1.6 21:49:58 10° WNW 21:52:32 20° NNW 21:53:16 19° N visible
26 Mar -1.8 20:58:23 10° W 21:01:13 26° NNW 21:04:03 10° NE visible
26 Mar -0.5 22:36:25 10° NW 22:37:08 13° NNW 22:37:08 13° NNW visible
27 Mar -1.4 21:44:57 10° NW 21:47:10 17° N 21:48:10 15° NNE visible
28 Mar -1.4 20:53:21 10° WNW 20:55:47 19° NNW 20:58:12 10° NE visible
28 Mar -0.8 22:30:53 10° NW 22:31:51 14° NNW 22:31:51 14° NNW visible
29 Mar -1.4 21:39:37 10° NW 21:41:48 16° N 21:42:45 15° NNE visible
30 Mar -1.3 20:48:11 10° NW 20:50:22 16° N 20:52:32 10° NE visible
30 Mar -1.1 22:25:02 10° NW 22:26:20 18° NNW 22:26:20 18° NNW visible
